When you browse on this site, cookies collect data to enhance your experience and personalize the content and advertising you see.
Visit our Privacy Policy to learn more. By continuing to use the site, you agree to this use of cookies and data.
  • în România
  • Lista ţărilor
  • Pe 7 zile
  • Temperatura apei
  • Hartă satelitară
  • Meteo pe hartă
  • Widget-uri
  • user-avatar
    Intrare

    Meteo pe oră la Arradon

    Astăzi, 17 Februarie, Duminică

    Timp Temperatura Precipitaţii Vânt Presiune Umiditate
    00:00 +6°C° 0 mm 5 m/s 761 mmHg 91%
    01:00 +7°C° 0 mm 5 m/s 760 mmHg 90%
    02:00 +7°C° 0 mm 5 m/s 760 mmHg 90%
    03:00 +7°C° 0 mm 6 m/s 759 mmHg 90%
    04:00 +7°C° 0 mm 5 m/s 759 mmHg 90%
    05:00 +8°C° 0 mm 5 m/s 759 mmHg 91%
    06:00 +8°C° 0 mm 5 m/s 759 mmHg 92%
    07:00 +9°C° 0 mm 5 m/s 759 mmHg 90%
    08:00 +9°C° 0 mm 5 m/s 759 mmHg 87%
    09:00 +10°C° 0 mm 5 m/s 759 mmHg 85%
    10:00 +12°C° 0 mm 5 m/s 759 mmHg 80%
    11:00 +13°C° 0 mm 6 m/s 759 mmHg 74%
    12:00 +14°C° 0 mm 6 m/s 759 mmHg 69%
    13:00 +14°C° 0 mm 6 m/s 759 mmHg 70%
    14:00 +14°C° 0 mm 6 m/s 759 mmHg 71%
    15:00 +14°C° 0 mm 6 m/s 759 mmHg 72%
    16:00 +13°C° 0 mm 5 m/s 759 mmHg 78%
    17:00 +11°C° 0 mm 4 m/s 759 mmHg 84%
    18:00 +10°C° 0 mm 4 m/s 759 mmHg 90%
    19:00 +10°C° 0 mm 3 m/s 759 mmHg 91%
    20:00 +10°C° 0 mm 3 m/s 759 mmHg 92%
    21:00 +10°C° 0 mm 3 m/s 759 mmHg 93%
    22:00 +9°C° 0 mm 2 m/s 759 mmHg 93%
    23:00 +9°C° 0 mm 2 m/s 759 mmHg 94%

    Mâine, 18 Februarie, Luni

    Timp Temperatura Precipitaţii Vânt Presiune Umiditate
    00:00 +9°C° 0 mm 2 m/s 759 mmHg 95%
    01:00 +9°C° 0 mm 2 m/s 759 mmHg 95%
    02:00 +8°C° 0 mm 2 m/s 759 mmHg 95%
    03:00 +8°C° 0 mm 2 m/s 759 mmHg 95%
    04:00 +9°C° 0 mm 1 m/s 759 mmHg 95%
    05:00 +9°C° 0 mm 1 m/s 759 mmHg 94%
    06:00 +9°C° 0 mm 1 m/s 759 mmHg 94%
    07:00 +9°C° 0 mm 1 m/s 759 mmHg 93%
    08:00 +9°C° 0 mm 1 m/s 759 mmHg 92%
    09:00 +9°C° 0 mm 0 m/s 759 mmHg 91%
    10:00 +10°C° 0.1 mm 1 m/s 759 mmHg 90%
    11:00 +10°C° 0.1 mm 1 m/s 759 mmHg 88%
    12:00 +10°C° 0.1 mm 2 m/s 759 mmHg 87%
    13:00 +10°C° 0 mm 2 m/s 759 mmHg 83%
    14:00 +12°C° 0 mm 2 m/s 759 mmHg 80%
    15:00 +11°C° 0 mm 3 m/s 759 mmHg 76%
    16:00 +10°C° 0 mm 3 m/s 760 mmHg 80%
    17:00 +10°C° 0 mm 3 m/s 760 mmHg 84%
    18:00 +9°C° 0 mm 2 m/s 760 mmHg 88%
    19:00 +8°C° 0 mm 2 m/s 761 mmHg 89%
    20:00 +8°C° 0 mm 2 m/s 761 mmHg 90%
    21:00 +8°C° 0 mm 2 m/s 762 mmHg 90%
    22:00 +7°C° 0 mm 2 m/s 762 mmHg 91%
    23:00 +7°C° 0 mm 2 m/s 762 mmHg 91%

    Poimâine, 19 Februarie, Marţi

    Timp Temperatura Precipitaţii Vânt Presiune Umiditate
    00:00 +6°C° 0 mm 2 m/s 762 mmHg 91%
    01:00 +6°C° 0 mm 2 m/s 762 mmHg 91%
    02:00 +5°C° 0 mm 2 m/s 763 mmHg 92%
    03:00 +5°C° 0 mm 2 m/s 763 mmHg 92%
    04:00 +5°C° 0 mm 2 m/s 763 mmHg 91%
    05:00 +4°C° 0 mm 2 m/s 763 mmHg 91%
    06:00 +4°C° 0 mm 2 m/s 763 mmHg 90%
    07:00 +6°C° 0 mm 1 m/s 763 mmHg 87%
    08:00 +7°C° 0 mm 1 m/s 763 mmHg 84%
    09:00 +7°C° 0 mm 1 m/s 764 mmHg 80%
    10:00 +9°C° 0 mm 1 m/s 764 mmHg 75%
    11:00 +10°C° 0 mm 1 m/s 764 mmHg 69%
    12:00 +11°C° 0 mm 1 m/s 764 mmHg 63%
    13:00 +10°C° 0 mm 2 m/s 763 mmHg 62%
    14:00 +12°C° 0 mm 2 m/s 763 mmHg 62%
    15:00 +12°C° 0 mm 2 m/s 763 mmHg 62%
    16:00 +9°C° 0 mm 2 m/s 763 mmHg 70%
    17:00 +8°C° 0 mm 2 m/s 763 mmHg 77%
    18:00 +8°C° 0 mm 1 m/s 763 mmHg 85%
    19:00 +7°C° 0 mm 1 m/s 763 mmHg 87%
    20:00 +6°C° 0 mm 2 m/s 763 mmHg 89%
    21:00 +6°C° 0 mm 2 m/s 763 mmHg 90%
    22:00 +6°C° 0 mm 2 m/s 763 mmHg 91%
    23:00 +6°C° 0 mm 2 m/s 763 mmHg 92%

    20 Februarie, Miercuri

    Timp Temperatura Precipitaţii Vânt Presiune Umiditate
    00:00 +5°C° 0 mm 3 m/s 763 mmHg 93%
    01:00 +5°C° 0 mm 3 m/s 763 mmHg 93%
    02:00 +5°C° 0 mm 3 m/s 763 mmHg 93%
    03:00 +5°C° 0 mm 3 m/s 762 mmHg 94%
    04:00 +5°C° 0 mm 3 m/s 762 mmHg 93%
    05:00 +5°C° 0 mm 3 m/s 762 mmHg 93%
    06:00 +5°C° 0 mm 3 m/s 762 mmHg 93%
    07:00 +7°C° 0 mm 3 m/s 763 mmHg 92%
    08:00 +8°C° 0 mm 3 m/s 763 mmHg 91%
    09:00 +7°C° 0 mm 4 m/s 763 mmHg 90%
    10:00 +10°C° 0 mm 4 m/s 764 mmHg 86%
    11:00 +11°C° 0 mm 4 m/s 764 mmHg 82%
    12:00 +13°C° 0 mm 4 m/s 764 mmHg 78%
    13:00 +13°C° 0 mm 4 m/s 764 mmHg 77%
    14:00 +13°C° 0 mm 4 m/s 764 mmHg 75%
    15:00 +13°C° 0 mm 4 m/s 764 mmHg 74%
    16:00 +11°C° 0 mm 3 m/s 764 mmHg 80%
    17:00 +10°C° 0 mm 3 m/s 764 mmHg 86%
    18:00 +9°C° 0 mm 2 m/s 764 mmHg 92%
    19:00 +9°C° 0 mm 2 m/s 765 mmHg 92%
    20:00 +8°C° 0 mm 2 m/s 765 mmHg 93%
    21:00 +8°C° 0 mm 3 m/s 765 mmHg 93%
    22:00 +8°C° 0 mm 3 m/s 765 mmHg 93%
    23:00 +8°C° 0 mm 3 m/s 765 mmHg 93%

    21 Februarie, Joi

    Timp Temperatura Precipitaţii Vânt Presiune Umiditate
    00:00 +8°C° 0 mm 3 m/s 765 mmHg 93%
    01:00 +8°C° 0 mm 3 m/s 765 mmHg 92%
    02:00 +8°C° 0 mm 3 m/s 765 mmHg 92%
    03:00 +8°C° 0 mm 3 m/s 766 mmHg 92%
    04:00 +7°C° 0 mm 3 m/s 766 mmHg 91%
    05:00 +7°C° 0 mm 3 m/s 766 mmHg 91%
    06:00 +7°C° 0 mm 3 m/s 766 mmHg 91%
    07:00 +6°C° 0 mm 4 m/s 766 mmHg 89%
    08:00 +7°C° 0 mm 4 m/s 766 mmHg 88%
    09:00 +8°C° 0 mm 4 m/s 767 mmHg 86%
    10:00 +10°C° 0 mm 4 m/s 767 mmHg 81%
    11:00 +11°C° 0 mm 4 m/s 767 mmHg 77%
    12:00 +13°C° 0 mm 4 m/s 767 mmHg 72%
    13:00 +13°C° 0 mm 4 m/s 767 mmHg 71%
    14:00 +14°C° 0 mm 4 m/s 767 mmHg 69%
    15:00 +14°C° 0 mm 4 m/s 767 mmHg 67%
    16:00 +13°C° 0 mm 4 m/s 767 mmHg 73%
    17:00 +11°C° 0 mm 3 m/s 767 mmHg 79%
    18:00 +10°C° 0 mm 3 m/s 767 mmHg 85%
    19:00 +9°C° 0 mm 3 m/s 768 mmHg 85%
    20:00 +9°C° 0 mm 3 m/s 768 mmHg 85%
    21:00 +9°C° 0 mm 3 m/s 768 mmHg 86%
    22:00 +8°C° 0 mm 3 m/s 769 mmHg 86%
    23:00 +8°C° 0 mm 3 m/s 769 mmHg 86%

    22 Februarie, Vineri

    Timp Temperatura Precipitaţii Vânt Presiune Umiditate
    00:00 +8°C° 0 mm 3 m/s 769 mmHg 87%
    01:00 +6°C° 0 mm 4 m/s 769 mmHg 86%
    02:00 +6°C° 0 mm 4 m/s 769 mmHg 86%
    03:00 +6°C° 0 mm 4 m/s 769 mmHg 85%
    04:00 +5°C° 0 mm 4 m/s 769 mmHg 86%
    05:00 +5°C° 0 mm 4 m/s 769 mmHg 87%
    06:00 +5°C° 0 mm 4 m/s 769 mmHg 88%
    07:00 +6°C° 0 mm 4 m/s 769 mmHg 86%
    08:00 +7°C° 0 mm 5 m/s 769 mmHg 83%
    09:00 +8°C° 0 mm 5 m/s 770 mmHg 81%
    10:00 +9°C° 0 mm 5 m/s 770 mmHg 76%
    11:00 +12°C° 0 mm 5 m/s 770 mmHg 71%
    12:00 +14°C° 0 mm 5 m/s 769 mmHg 66%
    13:00 +14°C° 0 mm 4 m/s 769 mmHg 65%
    14:00 +15°C° 0 mm 4 m/s 769 mmHg 63%
    15:00 +15°C° 0 mm 4 m/s 769 mmHg 62%
    16:00 +14°C° 0 mm 4 m/s 769 mmHg 69%
    17:00 +12°C° 0 mm 4 m/s 768 mmHg 77%
    18:00 +11°C° 0 mm 4 m/s 768 mmHg 84%
    19:00 +10°C° 0 mm 4 m/s 769 mmHg 86%
    20:00 +8°C° 0 mm 4 m/s 769 mmHg 87%
    21:00 +8°C° 0 mm 4 m/s 769 mmHg 89%
    22:00 +7°C° 0 mm 4 m/s 769 mmHg 89%
    23:00 +7°C° 0 mm 4 m/s 769 mmHg 90%
    Arată mai mult